#timestamp,LO_Frequency,Hit,StdDev 
1626732015.3,286047004.0,Y
1626732035.1,286047004.4,P
1626732055.9,286047002.1,N
1626732075.7,286047001.3,N
1626732095.6,286047005.9,Y
1626732115.4,286047001.3,P
1626732135.3,286047003.4,P
1626732155.1,286047007.5,P
1626732156.0,286047007.5,Y
1626732175.8,286047003.0,P
1626732195.7,286047005.4,P
1626732215.5,286047005.3,P
1626732235.3,286047003.0,N
1626732255.2,286047002.1,N
1626732275.0,286047002.8,N
1626732275.9,286047002.8,N
1626732295.8,286046996.6,Y
1626732315.6,286046989.3,P
1626732335.4,286046983.1,N
1626732355.3,286046979.3,N
1626732375.1,286046979.9,N
1626732395.8,286046975.8,N
1626732415.7,286046974.4,N
1626732435.5,286046969.9,Y
1626732455.4,286046986.2,P
1626732475.2,286046985.2,P
1626732495.0,286046984.2,P
1626732495.9,286046984.2,Y
1626732515.8,286046997.8,P
1626732535.6,286046992.7,N
1626732555.4,286046992.4,N
1626732575.3,286046992.6,N
1626732595.1,286046990.1,N
1626732615.9,286046988.7,N
1626732635.7,286046990.7,N
1626732655.5,286046991.3,N
1626732675.4,286046992.0,N
1626732695.2,286046990.2,Y
1626732715.0,286047002.3,P
1626732715.9,286047002.3,N
1626732735.8,286047000.8,N
1626732755.6,286046997.4,N
1626732775.5,286046998.7,N
1626732795.3,286046993.3,N
1626732815.1,286046991.7,N
1626732835.9,286046997.7,N
1626732855.7,286046991.1,N
1626732875.5,286046996.4,N
1626732895.4,286046994.8,N
1626732915.2,286046990.8,N
1626732935.1,286046994.1,N
1626732936.0,286046994.1,N
1626732955.8,286047000.9,N
1626732975.6,286047000.5,N
1626732995.5,286047001.8,N
1626733015.3,286047000.9,N
1626733035.1,286046996.6,N
1626733055.9,286046999.7,N
1626733075.7,286047001.3,N
1626733095.6,286047003.6,N
1626733115.4,286047004.1,N
1626733135.2,286047005.3,N
1626733155.1,286047009.4,N
1626733156.0,286047009.4,N
1626733175.8,286047016.8,Y
1626733195.6,286047019.2,P
1626733215.5,286047022.7,N
1626733235.3,286047024.4,N
1626733255.2,286047027.8,N
1626733275.9,286047031.1,Y
1626733295.7,286047016.3,P
1626733315.6,286047022.6,P
1626733335.4,286047027.6,P
1626733355.3,286047031.7,Y
1626733375.1,286047015.8,P
1626733376.0,286047015.8,P
1626733395.8,286047020.9,P
1626733415.7,286047026.4,Y
1626733435.5,286047009.1,P
1626733455.4,286047009.9,N
1626733475.2,286047012.0,N
1626733495.0,286047010.9,N
1626733495.9,286047010.9,Y
1626733515.8,286047004.4,P
1626733535.6,286047005.8,N
1626733555.5,286047007.4,N
1626733575.3,286047008.1,N
1626733595.1,286047013.7,Y
1626733615.9,286047006.9,P
1626733635.7,286047006.6,P
1626733655.5,286047009.2,P
1626733675.4,286047005.7,Y
1626733695.2,286046997.2,P
1626733715.1,286047002.0,N
1626733716.0,286047002.0,N
1626733735.8,286047005.4,N
1626733755.6,286047010.2,N
1626733775.5,286047014.7,Y
1626733795.3,286047013.5,P
1626733815.1,286047015.5,P
1626733835.9,286047014.6,N
1626733855.7,286047014.4,Y
1626733875.6,286047003.3,P
1626733895.4,286047005.4,N
1626733915.2,286047003.4,N
1626733935.1,286047004.2,N
1626733936.0,286047004.2,N
1626733955.8,286047001.6,N
1626733975.6,286046999.7,N
1626733995.5,286046999.7,N
1626734015.3,286046998.2,N
1626734035.2,286046998.8,N
1626734055.9,286046999.0,N
1626734075.7,286046998.3,N
1626734095.6,286046999.5,N
1626734115.4,286046997.6,N
1626734135.2,286046995.3,N
1626734155.1,286046996.6,N
1626734156.0,286046996.6,N
1626734175.8,286046999.3,N
1626734195.7,286046999.2,N
1626734215.5,286046996.5,N
1626734235.3,286046999.2,N
1626734255.2,286046997.2,N
1626734275.0,286046995.1,N
1626734275.9,286046995.1,N
1626734295.7,286046997.4,N
1626734315.6,286046996.7,N
1626734335.4,286046998.9,N
1626734355.3,286047002.0,N
1626734375.1,286047002.2,N
1626734376.0,286047002.2,N
1626734395.8,286046996.9,N
1626734415.7,286046999.5,N
1626734435.5,286046993.7,N
1626734455.3,286046990.4,Y
1626734475.2,286046989.9,P
1626734495.0,286046987.1,N
1626734495.9,286046987.1,N
1626734515.8,286046990.8,N
1626734535.6,286046988.9,N
1626734555.4,286046991.3,N
1626734575.3,286046990.7,N
1626734595.1,286046991.4,N
1626734615.9,286046989.2,Y
1626734635.7,286046997.1,P
1626734655.5,286046998.9,N
1626734675.4,286046998.8,N
1626734695.2,286046999.0,N
1626734715.0,286046999.3,N
1626734716.0,286046999.3,N
1626734735.8,286046998.6,N
1626734755.6,286047000.2,N
1626734775.5,286047000.3,N
1626734795.3,286047002.7,N
1626734815.1,286047002.5,N
1626734835.9,286047004.4,N
1626734855.7,286047003.8,N
1626734875.6,286047005.3,N
1626734895.4,286047005.2,N
1626734915.2,286047007.3,N
1626734935.1,286047006.6,N
1626734936.0,286047006.6,N
1626734955.8,286047008.7,N
1626734975.7,286047008.8,N
1626734995.5,286047008.6,N
1626735015.3,286047009.2,N
1626735035.2,286047006.6,N
1626735055.9,286047008.6,N
1626735075.7,286047006.9,N
1626735095.6,286047008.7,N
1626735115.4,286047008.9,N
1626735135.2,286047008.1,N
1626735155.1,286047010.6,N
1626735156.0,286047010.6,N
1626735175.8,286047011.9,N
1626735195.7,286047013.8,Y
1626735215.5,286047007.8,P
1626735235.3,286047010.8,P
1626735255.2,286047010.4,P
1626735275.0,286047010.1,Y
1626735275.9,286047010.1,P
1626735295.8,286047002.6,P
1626735315.6,286047002.6,N
1626735335.4,286047001.3,N
1626735355.3,286047001.8,N
1626735375.1,286047001.4,N
1626735395.8,286047005.8,N
1626735415.7,286047003.3,N
1626735435.5,286047003.2,N
1626735455.4,286047005.3,N
1626735475.2,286047005.1,N
1626735495.0,286047001.5,N
1626735495.9,286047001.5,N
1626735515.8,286047002.0,N
1626735535.6,286046998.5,N
1626735555.4,286046998.0,N
1626735575.3,286046995.7,N
1626735595.1,286046993.6,N
